Temperature
11 12 12 12 12 12 12 13 13 13 11 12 12 12 13 12 12 12 11 11 11 10 10 11 11 11 11 11 11 11 11 11 11 11 11 11 11 11 11 11 11 11 11 11
12 12 11 11 11 11 12 12 12 12 11 11 12 12 13 12 12 11 11 11 10 10 10 10 11 11 11 11 11 11 11 11 11 11 11 11 11 11 11 11 11 11 11 11
12 11 10 10 11 11 12 12 12 11 11 11 12 14 14 13 11 10 10 10 10 10 10 10 10 11 11 11 11 10 11 11 10 10 10 10 10 10 10 10 10 11 11 11
11 10 10 10 11 11 12 11 10 10 12 13 12 13 14 13 12 12 11 10 10 9 9 10 10 10 10 10 10 10 10 10 10 10 10 10 10 10 10 10 10 10 10 10
10 9 10 10 10 10 10 9 10 10 11 12 12 12 14 12 12 12 12 10 10 9 9 9 9 10 10 10 10 10 10 10 10 10 10 10 10 10 10 10 10 10 10 10
9 9 9 9 9 9 9 10 10 10 11 12 12 12 14 13 13 13 12 10 9 9 9 9 9 10 10 10 10 10 10 10 10 10 10 10 10 9 10 9 9 10 10 9
10 9 8 8 9 9 10 11 12 12 12 13 10 11 13 13 12 11 11 10 9 9 8 9 9 9 9 9 10 10 10 10 10 10 10 10 9 9 9 9 9 9 9 9
10 11 9 8 9 9 10 11 11 12 13 13 10 11 13 11 10 9 9 9 8 8 8 8 9 9 9 9 9 10 10 10 10 10 10 9 9 9 9 9 9 9 9 9
10 10 8 8 8 9 10 10 10 10 10 11 13 12 12 11 10 9 9 8 8 8 8 8 9 9 9 9 9 9 9 9 9 9 9 9 9 9 9 9 9 9 9 9
9 9 8 7 8 7 9 9 9 9 10 12 13 12 13 11 11 10 9 9 8 8 7 8 8 9 9 9 9 9 9 9 9 9 9 9 9 9 9 9 9 8 8 8
8 8 8 8 8 9 8 8 9 9 10 11 12 13 12 11 10 10 9 8 8 7 7 8 8 8 8 8 8 9 9 9 9 9 9 9 8 8 8 8 8 8 8 8
7 7 8 8 7 7 8 8 8 9 9 8 10 12 11 10 9 9 9 8 7 7 7 7 7 8 8 8 8 8 8 8 8 8 8 8 8 8 8 8 8 8 8 8
6 7 8 8 7 6 7 7 7 7 8 8 9 12 10 9 8 8 8 7 7 7 7 7 7 7 7 7 8 8 8 8 8 8 8 8 8 8 7 7 7 7 7 7
6 7 8 9 9 8 7 6 6 6 7 8 9 11 11 10 9 8 7 7 7 6 6 6 7 7 7 7 7 7 7 7 7 7 7 7 7 7 7 7 7 7 7 7
6 6 6 7 7 7 7 7 6 6 7 7 9 9 10 10 9 8 8 7 6 6 6 6 6 6 6 6 6 7 6 6 6 6 6 7 6 6 6 6 6 6 6 6
5 5 5 5 6 6 6 6 6 6 7 7 8 8 9 9 8 7 7 6 6 6 6 6 5 5 6 6 6 6 6 6 6 6 6 6 6 6 6 6 6 6 6 6
4 5 4 6 5 5 6 7 6 6 7 7 7 8 8 7 7 6 6 6 5 5 5 5 5 5 5 5 5 5 5 5 5 5 5 5 5 5 5 5 5 5 5 5
4 4 4 5 5 4 8 7 6 6 6 6 6 6 7 6 6 5 5 5 5 5 5 5 5 4 4 4 5 5 5 5 5 5 5 5 5 5 5 5 5 5 4 4
4 4 4 4 5 6 7 6 5 5 5 5 5 5 5 5 4 5 4 4 4 4 4 4 4 4 4 4 4 4 4 4 4 4 4 4 4 4 4 4 4 4 4 4
3 3 4 4 4 5 7 5 4 5 5 5 5 5 5 4 5 6 4 4 4 4 4 3 3 3 3 3 3 3 3 3 3 3 3 3 3 3 3 3 3 3 3 3
2 2 3 3 4 5 5 4 4 5 5 4 4 4 4 4 5 4 4 3 3 3 3 3 3 3 3 3 3 3 3 3 3 3 3 3 3 3 3 3 3 3 3 3
3 3 3 3 3 4 4 3 4 5 4 3 3 3 3 3 3 3 3 2 2 2 2 2 2 2 2 2 2 2 2 3 2 2 2 2 2 2 2 2 2 2 2 2
3 4 4 4 4 4 3 3 3 3 3 3 2 2 2 2 2 2 2 2 2 2 2 2 2 2 2 2 2 2 2 2 2 2 2 2 2 2 2 2 2 2 2 1
2 2 2 2 3 3 3 2 2 2 2 2 2 2 2 2 1 1 1 1 1 1 1 1 1 1 1 1 1 1 1 1 1 1 1 1 1 1 1 1 1 1 1 1
2 2 1 2 3 2 2 2 2 2 1 1 1 1 1 1 1 1 1 1 1 1 1 1 0 1 1 1 1 1 1 1 0 0 0 0 0 0 0 0 1 1 1 0
2 1 1 2 3 2 2 2 1 1 1 1 1 0 0 0 0 0 0 0 0 -0 0 0 -0 -0 0 0 0 0 0 -0 -0 -0 -0 -0 -1 -0 -0 -0 -0 0 0 0
Wind_Speed
1 1 1 2 3 2 3 3 4 4 4 4 5 7 7 5 4 4 4 3 2 2 1 1 1 2 3 3 3 3 3 2 3 2 2 2 2 2 2 2 2 2 1 2
2 1 2 2 1 2 2 2 3 3 4 3 5 7 7 5 4 3 3 3 3 2 1 1 1 1 2 2 2 2 2 2 2 2 2 2 1 1 1 1 1 1 1 2
2 1 1 1 1 1 1 3 3 4 5 2 5 5 3 1 1 2 2 2 2 2 3 2 1 2 2 2 3 2 3 3 3 3 3 3 2 1 2 2 1 0 1 2
1 1 1 1 1 2 3 2 3 4 4 2 2 4 4 3 3 2 1 1 2 2 2 2 2 2 2 2 1 1 3 4 4 4 3 4 3 2 2 1 1 1 1 1
1 0 1 1 2 2 2 3 3 4 3 3 3 4 4 2 4 4 3 2 2 2 2 2 2 2 1 0 1 1 3 3 4 4 4 4 3 2 1 1 1 1 1 2
1 0 1 1 2 1 1 1 1 2 3 4 4 5 5 3 5 4 3 2 2 2 2 2 2 2 2 1 1 1 3 3 3 4 4 5 4 3 2 2 1 1 1 1
1 1 0 0 0 1 1 1 1 2 3 3 1 5 6 2 2 3 3 2 2 2 3 2 2 2 2 1 1 1 2 3 3 4 4 4 4 4 4 3 3 2 2 1
2 2 1 1 1 1 2 2 2 3 4 3 2 6 3 1 1 2 2 2 1 2 2 2 2 2 1 1 1 1 2 2 3 3 3 3 3 3 3 4 3 3 2 2
2 2 1 0 1 2 2 2 2 3 4 6 5 5 4 1 0 1 1 1 1 2 1 1 1 1 1 1 1 1 2 2 2 2 2 3 3 3 4 3 3 3 3 3
2 3 2 1 2 0 1 2 2 3 3 6 7 6 4 2 1 1 1 2 2 2 2 2 1 1 0 0 0 1 1 1 1 1 2 2 3 3 3 3 4 4 4 3
1 3 2 2 5 4 3 3 3 3 4 5 6 4 1 2 2 3 3 2 2 3 3 3 2 2 1 0 0 1 1 1 1 1 2 2 2 2 3 3 4 4 4 4
1 2 4 5 2 3 5 5 5 4 4 4 6 6 2 2 2 3 3 2 2 2 2 2 2 2 1 1 1 1 1 1 1 1 2 2 2 2 3 4 4 4 4 4
2 3 3 3 3 3 4 5 6 4 3 6 7 7 2 1 2 3 3 3 2 2 2 2 2 2 2 2 2 2 1 1 1 1 1 2 2 3 3 4 4 4 4 4
3 5 8 9 7 4 7 9 9 8 7 10 14 15 10 7 6 6 6 5 5 4 3 3 3 3 2 2 2 2 2 2 2 2 2 3 3 3 3 3 4 4 4 4
4 6 9 12 11 11 13 14 14 16 16 14 16 18 18 12 10 9 8 7 7 6 5 5 4 4 3 3 2 2 3 3 3 3 3 3 4 3 3 3 4 4 4 4
4 5 5 10 11 13 16 18 18 19 19 21 23 22 15 12 10 10 9 8 8 8 7 6 5 4 4 4 3 3 3 3 3 4 4 4 4 4 4 4 4 4 4 4
5 6 5 8 6 9 13 13 15 12 13 14 17 14 9 8 9 9 8 8 9 8 7 7 6 6 5 4 4 3 3 3 4 4 5 4 4 5 5 4 4 5 5 5
8 7 5 6 6 11 6 1 6 10 10 10 11 11 11 10 9 9 8 8 8 7 6 6 6 5 4 4 4 3 3 3 4 5 5 5 5 5 5 5 5 5 5 5
12 9 6 5 9 13 8 2 3 6 7 6 10 11 10 8 7 7 6 7 8 7 6 5 5 5 4 4 4 4 4 4 5 5 6 6 5 6 6 6 6 6 6 6
7 10 8 8 9 10 5 2 2 3 6 3 6 9 9 6 7 7 5 6 6 6 5 4 4 4 5 5 4 5 5 6 6 6 6 6 6 6 7 7 7 6 6 7
5 7 11 13 12 10 4 1 1 5 4 5 7 8 8 8 9 8 7 6 5 5 5 5 5 5 5 5 5 6 6 7 7 7 7 7 7 7 7 7 7 6 6 7
8 7 9 9 11 10 1 2 4 7 7 7 8 8 9 9 9 8 7 6 6 6 6 6 5 6 6 6 6 7 8 8 7 7 7 8 8 7 6 7 7 7 7 7
8 8 6 8 8 6 4 6 7 8 9 8 8 9 8 8 8 8 8 7 7 7 6 6 6 7 6 6 7 8 9 8 7 8 8 8 8 8 7 7 8 7 7 7
7 5 7 9 11 12 11 10 9 9 9 10 9 9 9 9 9 9 9 8 7 7 6 6 6 7 7 7 7 8 9 8 8 8 9 8 8 8 8 7 7 7 7 7
9 6 8 13 14 13 11 10 11 11 10 11 11 10 9 9 10 10 9 8 8 7 7 7 7 8 9 9 9 9 8 8 8 9 9 9 8 9 8 8 8 9 9 9
12 12 13 14 13 12 13 12 12 12 12 12 12 11 10 9 10 10 9 8 8 8 8 8 8 9 10 10 10 9 8 8 9 9 9 8 7 7 7 8 8 10 12 13
Wind_Direction
25 143 203 252 251 264 225 246 284 302 326 297 270 280 289 287 276 268 263 252 233 237 271 44 102 131 131 133 145 142 138 132 143 136 141 150 145 134 145 160 162 173 186 195
161 223 290 289 241 198 206 254 297 314 336 310 296 288 287 284 270 264 262 250 232 224 200 138 119 121 141 151 155 162 159 155 149 138 140 142 140 143 143 147 126 145 199 200
177 358 326 188 188 229 261 261 287 301 315 284 301 280 258 251 274 298 281 258 246 224 216 191 175 169 173 183 183 178 182 180 164 148 143 141 145 168 177 179 154 62 282 195
180 291 193 185 272 283 275 300 279 277 284 284 310 278 253 246 255 264 249 224 226 215 217 204 197 184 191 208 197 197 180 175 165 163 163 162 172 182 201 185 153 202 236 210
195 172 214 236 290 275 282 315 279 269 260 263 250 252 259 233 252 249 234 221 225 211 200 194 196 186 164 155 163 173 156 163 165 172 173 178 189 191 180 176 189 211 224 239
247 224 277 283 306 232 252 266 235 221 234 245 238 238 254 216 239 236 222 214 209 192 182 178 163 140 115 100 116 154 155 165 169 176 183 187 193 195 190 200 208 230 249 249
277 181 132 243 198 157 275 266 278 246 236 250 151 241 252 257 259 255 248 220 200 174 167 157 148 147 135 131 144 167 166 174 177 182 191 194 199 201 207 218 221 230 243 253
263 237 176 185 246 256 240 260 251 269 272 283 234 246 251 37 327 299 285 251 199 180 178 173 172 174 165 158 181 190 190 195 193 196 200 204 204 207 214 220 225 233 244 255
260 252 92 336 299 229 206 215 285 266 275 274 258 267 271 193 276 273 253 220 196 194 205 205 196 200 200 204 215 215 201 213 218 219 214 217 216 215 221 225 228 234 236 242
278 270 270 294 198 159 277 172 196 221 253 264 268 260 261 226 218 179 199 221 226 230 232 240 249 259 255 251 230 204 203 210 225 224 220 220 224 224 227 231 234 236 240 237
253 251 263 236 225 228 192 198 220 233 259 261 272 258 179 244 242 215 215 228 236 237 238 241 253 266 264 277 229 224 222 210 233 240 232 224 229 228 229 233 240 243 244 236
193 242 259 260 278 285 239 222 206 238 248 250 271 270 109 245 261 244 244 246 252 251 249 249 253 257 260 264 261 249 249 245 257 255 247 240 238 234 242 246 247 246 246 246
186 222 273 258 208 198 227 225 230 251 252 236 246 259 113 339 295 279 260 249 255 247 240 241 244 245 253 261 264 263 263 266 272 262 252 250 246 240 247 257 258 252 251 253
216 233 239 256 278 243 248 243 233 227 238 247 246 264 270 279 283 281 269 258 255 248 248 250 250 248 253 257 270 281 284 287 285 273 261 258 260 256 255 258 257 253 251 253
212 247 250 262 271 267 262 256 241 235 241 250 262 266 272 275 277 277 270 263 253 248 249 247 252 253 252 258 269 279 281 283 277 269 264 264 270 268 262 261 263 261 258 259
224 247 258 266 264 263 265 258 248 246 249 253 262 270 278 283 280 273 267 260 252 250 248 248 254 257 252 256 268 270 272 273 270 267 266 267 271 272 268 267 269 266 263 263
219 222 242 270 279 284 265 247 237 239 239 245 254 265 282 282 274 272 269 263 260 258 255 250 250 251 250 255 262 267 274 272 268 268 271 272 270 271 271 269 266 265 267 268
222 222 239 269 274 256 272 209 235 241 250 244 257 276 282 280 282 278 270 270 269 263 258 257 254 254 257 261 263 267 273 273 270 270 273 276 272 270 271 268 266 269 270 266
218 217 231 242 258 271 275 247 235 239 261 258 264 282 289 295 293 280 278 276 271 266 265 264 259 257 262 266 267 266 269 271 270 271 274 275 271 267 268 267 267 269 268 267
211 220 231 239 254 262 281 303 282 236 256 301 294 294 296 293 287 293 308 290 279 276 272 266 262 258 261 267 265 257 263 265 266 269 272 272 268 262 263 266 268 268 265 266
199 213 227 240 252 263 279 280 182 240 283 335 312 301 293 274 280 300 307 297 286 284 279 273 266 261 262 266 259 256 262 266 270 273 272 270 266 263 263 265 266 266 265 266
216 219 225 233 243 253 189 172 242 287 310 305 304 298 290 284 290 295 293 290 290 288 283 277 270 266 266 263 257 259 264 270 273 272 270 270 269 268 264 262 263 262 261 262
230 232 241 234 251 284 259 261 275 288 291 294 295 295 289 287 290 292 289 285 286 283 281 278 273 275 273 267 260 262 270 274 272 270 271 272 272 269 263 259 259 258 256 256
247 250 253 261 265 272 276 274 276 281 283 286 287 285 280 282 284 287 285 284 286 285 284 281 275 272 274 273 267 265 272 271 267 268 271 271 269 269 265 260 254 253 253 254
261 249 258 267 276 284 274 272 280 284 285 287 287 283 277 275 277 279 280 279 281 283 285 281 275 275 278 282 278 275 273 269 266 268 270 269 266 266 266 262 257 254 253 251
250 249 255 266 275 278 283 288 285 282 281 282 283 283 280 274 274 277 277 280 281 282 283 280 277 277 279 282 281 279 275 268 264 266 267 267 265 264 264 267 269 252 249 256
Height
1507 1505 1504 1504 1504 1502 1501 1500 1498 1498 1501 1499 1495 1493 1491 1490 1490 1489 1489 1488 1488 1488 1488 1488 1488 1489 1489 1490 1491 1492 1493 1493 1493 1494 1495 1497 1498 1500 1502 1503 1503 1504 1505 1506
1505 1505 1507 1507 1506 1504 1501 1500 1499 1500 1501 1499 1494 1491 1488 1488 1488 1488 1488 1487 1487 1487 1487 1487 1487 1487 1487 1489 1489 1491 1491 1492 1493 1493 1495 1496 1497 1498 1500 1500 1501 1502 1503 1504
1504 1507 1509 1507 1505 1503 1501 1500 1500 1502 1501 1499 1495 1485 1484 1486 1487 1487 1487 1486 1486 1486 1486 1486 1486 1487 1487 1488 1489 1490 1490 1490 1491 1492 1493 1494 1496 1496 1497 1498 1498 1499 1500 1501
1507 1509 1508 1506 1505 1503 1500 1503 1503 1503 1498 1493 1496 1487 1479 1482 1484 1484 1485 1485 1485 1485 1485 1485 1486 1485 1486 1486 1486 1487 1488 1488 1489 1491 1491 1493 1494 1495 1496 1496 1496 1498 1498 1499
1506 1509 1507 1506 1507 1506 1503 1505 1504 1502 1498 1496 1494 1491 1478 1482 1481 1480 1482 1483 1484 1484 1484 1485 1485 1485 1485 1485 1485 1486 1486 1487 1488 1489 1490 1492 1493 1494 1494 1494 1495 1496 1495 1496
1508 1510 1509 1508 1508 1508 1507 1505 1503 1501 1497 1494 1492 1489 1477 1477 1478 1478 1481 1482 1483 1483 1483 1483 1484 1484 1484 1485 1485 1486 1486 1487 1488 1488 1489 1490 1491 1492 1492 1493 1493 1493 1494 1494
1505 1508 1510 1510 1507 1507 1505 1500 1497 1494 1492 1485 1494 1491 1479 1476 1479 1480 1481 1481 1482 1482 1482 1482 1482 1483 1483 1484 1484 1485 1485 1486 1487 1487 1488 1489 1490 1490 1490 1491 1491 1491 1491 1491
1503 1503 1507 1509 1507 1505 1505 1501 1499 1495 1487 1482 1492 1485 1474 1479 1481 1481 1481 1481 1481 1481 1481 1482 1482 1483 1483 1483 1484 1484 1484 1484 1485 1486 1486 1487 1487 1488 1489 1489 1489 1489 1489 1489
1503 1502 1508 1509 1509 1507 1503 1502 1504 1500 1499 1493 1477 1477 1474 1478 1479 1480 1480 1480 1480 1480 1480 1481 1481 1482 1482 1482 1483 1483 1483 1483 1483 1483 1484 1485 1485 1486 1486 1487 1487 1487 1487 1486
1508 1507 1507 1509 1509 1509 1507 1505 1505 1502 1496 1485 1474 1474 1470 1473 1475 1478 1479 1480 1480 1480 1480 1480 1480 1480 1480 1481 1481 1481 1481 1481 1482 1482 1482 1483 1483 1484 1484 1484 1484 1484 1484 1483
1510 1508 1507 1507 1504 1502 1507 1507 1503 1500 1497 1489 1479 1470 1470 1472 1475 1476 1478 1479 1479 1479 1479 1478 1478 1478 1479 1479 1479 1479 1479 1479 1480 1480 1480 1481 1481 1481 1481 1481 1481 1481 1481 1481
1511 1509 1504 1503 1506 1506 1503 1502 1502 1500 1498 1497 1488 1475 1472 1474 1475 1476 1476 1477 1477 1477 1477 1477 1477 1477 1477 1477 1477 1477 1477 1477 1477 1478 1478 1478 1478 1478 1478 1478 1478 1478 1478 1477
1511 1508 1504 1498 1504 1507 1504 1503 1503 1502 1501 1497 1490 1474 1473 1475 1475 1476 1476 1476 1476 1476 1476 1475 1475 1475 1475 1475 1474 1475 1474 1474 1475 1475 1475 1475 1475 1475 1475 1474 1474 1474 1474 1474
1509 1506 1503 1495 1490 1496 1499 1500 1501 1502 1499 1490 1482 1470 1470 1472 1473 1474 1475 1475 1475 1474 1474 1473 1473 1472 1472 1472 1472 1472 1472 1472 1472 1472 1472 1472 1472 1471 1471 1471 1471 1470 1470 1470
1507 1503 1500 1497 1496 1496 1494 1492 1494 1494 1488 1485 1473 1470 1466 1469 1471 1471 1472 1472 1472 1471 1471 1471 1470 1470 1469 1469 1469 1469 1469 1469 1469 1469 1468 1468 1468 1467 1467 1467 1467 1466 1466 1465
1505 1503 1501 1498 1495 1494 1491 1486 1485 1484 1481 1477 1473 1468 1466 1468 1469 1469 1468 1468 1468 1467 1467 1467 1467 1467 1467 1466 1466 1466 1465 1465 1465 1465 1464 1464 1464 1463 1463 1462 1462 1461 1461 1460
1502 1501 1500 1491 1491 1490 1481 1474 1475 1474 1471 1471 1468 1465 1465 1466 1466 1466 1465 1465 1464 1464 1463 1463 1463 1463 1463 1463 1463 1462 1462 1462 1461 1461 1460 1460 1459 1459 1458 1458 1457 1456 1456 1455
1498 1498 1496 1490 1491 1488 1465 1468 1468 1468 1467 1469 1466 1464 1464 1463 1463 1462 1462 1461 1460 1460 1459 1459 1459 1460 1460 1459 1459 1459 1458 1458 1457 1457 1456 1455 1455 1454 1454 1453 1452 1452 1451 1450
1492 1493 1492 1489 1481 1468 1464 1468 1468 1467 1464 1465 1464 1462 1461 1461 1460 1458 1458 1457 1457 1457 1456 1456 1456 1456 1456 1456 1455 1455 1454 1454 1453 1452 1451 1451 1450 1449 1449 1448 1448 1447 1446 1445
1490 1490 1489 1485 1481 1471 1461 1465 1466 1466 1461 1462 1462 1461 1460 1460 1457 1454 1454 1454 1453 1453 1452 1452 1452 1452 1452 1452 1451 1451 1450 1449 1449 1448 1447 1446 1445 1445 1444 1443 1443 1442 1441 1439
1486 1487 1485 1480 1475 1462 1463 1465 1465 1464 1459 1461 1460 1459 1458 1457 1455 1453 1452 1451 1450 1449 1449 1448 1448 1448 1448 1448 1447 1446 1445 1445 1444 1443 1442 1441 1440 1439 1439 1438 1437 1436 1435 1434
1476 1476 1476 1474 1472 1464 1462 1464 1463 1460 1459 1458 1457 1456 1455 1453 1451 1450 1449 1448 1447 1446 1445 1445 1444 1444 1443 1443 1442 1441 1440 1440 1439 1438 1437 1436 1435 1434 1433 1432 1431 1431 1430 1428
1470 1468 1465 1465 1461 1459 1460 1459 1458 1458 1457 1455 1454 1453 1451 1450 1448 1447 1446 1444 1443 1443 1442 1441 1440 1439 1439 1438 1437 1436 1435 1434 1433 1432 1431 1430 1429 1428 1427 1426 1425 1424 1424 1422
1466 1467 1465 1462 1456 1456 1456 1455 1454 1454 1453 1451 1450 1449 1447 1446 1444 1443 1442 1440 1439 1438 1438 1437 1436 1434 1434 1433 1432 1431 1430 1428 1427 1426 1425 1424 1423 1421 1421 1420 1419 1418 1417 1416
1461 1463 1460 1456 1453 1452 1451 1451 1450 1449 1448 1447 1445 1444 1442 1441 1439 1438 1437 1436 1435 1434 1433 1432 1431 1429 1429 1428 1426 1425 1424 1422 1421 1419 1418 1417 1416 1415 1414 1413 1412 1411 1410 1409
1456 1457 1455 1449 1448 1448 1446 1446 1445 1444 1442 1441 1440 1438 1437 1436 1435 1433 1432 1431 1430 1429 1428 1427 1426 1425 1423 1422 1420 1419 1418 1417 1415 1413 1412 1411 1409 1408 1407 1405 1404 1403 1403 1402